カタログに戻る

LES 9

運用中軍事GEO
NORAD 8747·PAYLOAD·🇺🇸 United States

打ち上げ Mar 15, 1976 から Cape Canaveral Space Force Station

Loading…

TLE

最新Source: Space-Track

元期: Sep 14, 2026, 10:33 UTC

1 08747U 76023B   26257.43999645 -.00000124  00000-0  00000-0 0  9993
2 08747  22.5144  35.8977 0024153 184.8564 187.5475  1.00270050130574

AllMySatでLES 9をリアルタイム追跡

Download on the App Store